星链-6126 (STARLINK-6126 )

导读

STARLINK-6126是美国太空探索技术公司SpaceX星链星座的成员卫星,于2023年3月29日发射升空,归属星链星座组网部署,作为低轨互联网通信卫星,它为全球范围,尤其是偏远、网络基础设施薄弱区域,提供高速低延迟的宽带互联网接入服务,进一步完善了星链低轨卫星通信网络的覆盖能力与服务容量。

基本信息
目录编号:
56124
目录名称:
STARLINK-6126
国际标识:
2023-046AJ
轨道中心:
EARTH
卫星名称:
星链-6126
卫星全名:
星链-6126 (STARLINK-6126 )
卫星状态:
在轨 (已飞行1263 天)
发射日期:
2023-03-29 UTC
国别 :
美国 (US)
星等 :
--
该卫星已列入 空间交会检测服务 Space Conjunction Data Service (SCDS) ,当前飞行风险评估等级: 无高风险
轨道信息
数据来源 国际轨道数据 AOE轨道数据
星历时间 2026-09-12T12:57:44+0800
12小时前
查看轨道信息
2026-09-11T11:00:00+0800
1天前
查看轨道信息
半长轴 6861.382km 6861.19km
偏心率 0.0002288 0.0000945
轨道倾角 43.001° 43.000°
近地点辐角 51.788° 226.229°
升交点赤经 173.807° 179.914°
平近点角 308.318° 298.078°
近地点 481.675km 482.404km
远地点 484.815km 483.702km
周期 94.271分钟 94.267分钟
每日圈数 15.275147 15.27579
详细信息
固有亮度:
5
最大亮度:
2.5
卫星平台:
Starlink v1.5
覆盖范围:
全球
运营商:
太空探索技术公司
运营商所在国:
美国
制造商(研发单位):
太空探索技术公司
制造商所在国:
美国
使用方式:
暂无
卫星简介
星链(Starlink)计划是由太空探索技术公司(SpaceX)提出的一个巨型低轨卫星互联网星座项目,计划在2019年至2024年间在太空搭建由约1.2万颗卫星组成的“星链”网络,其中1584颗将部署在地球上空550千米处的近地轨道,并从2020年开始工作。该卫星仍在工作。
2D轨道图
3D轨道图
轨道高度分析图
轨道倾角分析图
轨道综合分析图
查看轨道综合分析图
交会数据列表
事件ID 空间交会对象 最接近时刻(TCA) 交会距离 交会风险概率(CRP) 交会风险指数(CRI) 操作
CDM_260913-154905-612406-430422
2026-09-13T
15:49:44+0000
0.449 km
远距离
1.961723E-4 高风险 0.81
CDM_260914-024905-612406-431321
2026-09-14T
02:49:05+0000
0.879 km
远距离
2.959084E-5 中风险 0.64
CDM_260913-060505-511205-612423
2026-09-13T
06:05:48+0000
1.397 km
极远距离
8.327961E-6 低风险 0.53
CDM_260913-090605-612405-826424
BRO-11 (58264)
2026-09-13T
09:06:40+0000
1.649 km
极远距离
4.831796E-6 低风险 0.49
CDM_260914-044401-921005-612421
2026-09-14T
04:44:56+0000
1.710 km
极远距离
4.164751E-6 低风险 0.47
CDM_260906-012405-612406-403121
2026-09-06T
01:24:31+0000
2.871 km
极远距离
1.295274E-6 低风险 0.37
与全量物体交会距离演化趋势
与全量物体交会风险概率演化趋势